CW0454 Weather Reports


Display with metric or nautical units.
time (UTC)temp
F
wind
direction
speed
MPH
gust
MPH
rain 1hr
in
rain 24hr
in
rain mn
in
humidity
%
barometer
mb
20210618003401 69 152 0.0 3.0 0.00 0.00 0.00 59 1015.8
20210618002401 70 144 0.0 5.0 0.00 0.00 0.00 59 1015.7
20210618001402 71 151 1.0 6.0 0.00 0.00 0.00 56 1015.6
20210618000403 72 156 1.0 5.0 0.00 0.00 0.00 54 1015.4
20210617235402 72 155 2.0 8.0 0.00 0.00 0.00 54 1015.4
20210617234402 73 160 1.0 4.0 0.00 0.00 0.00 54 1015.3
20210617233402 73 165 0.0 7.0 0.00 0.00 0.00 53 1015.2
20210617232402 74 139 1.0 6.0 0.00 0.00 0.00 50 1015.2
20210617231402 75 121 1.0 6.0 0.00 0.00 0.00 50 1015.1
20210617230402 75 130 2.0 7.0 0.00 0.00 0.00 48 1015.1
20210617225404 76 119 1.0 5.0 0.00 0.00 0.00 50 1015.0
20210617224401 78 130 2.0 6.0 0.00 0.00 0.00 44 1014.8
20210617223401 80 28 1.0 3.0 0.00 0.00 0.00 39 1014.8
20210617221406 82 241 1.0 2.0 0.00 0.00 0.00 36 1014.6
20210617220400 81 237 1.0 5.0 0.00 0.00 0.00 36 1014.7
20210617215402 81 287 1.0 4.0 0.00 0.00 0.00 36 1014.7
20210617214400 82 300 1.0 4.0 0.00 0.00 0.00 37 1014.7
20210617213401 82 303 1.0 4.0 0.00 0.00 0.00 35 1014.7
20210617212401 82 303 1.0 6.0 0.00 0.00 0.00 37 1014.7
20210617211401 81 308 0.0 4.0 0.00 0.00 0.00 34 1014.7
20210617210402 80 259 4.0 8.0 0.00 0.00 0.00 33 1014.8
20210617205400 82 276 0.0 9.0 0.00 0.00 0.00 34 1014.8
20210617204400 81 287 2.0 9.0 0.00 0.00 0.00 37 1014.7
20210617203400 81 281 1.0 6.0 0.00 0.00 0.00 36 1014.8
20210617202402 82 310 2.0 7.0 0.00 0.00 0.00 32 1014.7
20210617201400 81 298 5.0 8.0 0.00 0.00 0.00 36 1014.7
20210617200400 81 243 1.0 8.0 0.00 0.00 0.00 36 1014.8
20210617195400 81 304 1.0 5.0 0.00 0.00 0.00 34 1014.9
20210617194400 80 264 2.0 8.0 0.00 0.00 0.00 32 1015.1
20210617193403 81 200 1.0 5.0 0.00 0.00 0.00 33 1015.0
20210617192401 80 307 3.0 10.0 0.00 0.00 0.00 33 1015.3
20210617191400 80 328 1.0 8.0 0.00 0.00 0.00 36 1015.3
20210617190400 79 236 3.0 9.0 0.00 0.00 0.00 34 1015.4
20210617185412 80 229 3.0 9.0 0.00 0.00 0.00 34 1015.5
20210617184400 79 269 1.0 13.0 0.00 0.00 0.00 34 1015.4
20210617183401 79 310 3.0 7.0 0.00 0.00 0.00 37 1015.4
20210617181402 79 261 5.0 11.0 0.00 0.00 0.00 34 1015.3
20210617180401 79 323 3.0 9.0 0.00 0.00 0.00 33 1015.6
20210617175401 79 63 0.0 9.0 0.00 0.00 0.00 33 1015.6
20210617174403 78 293 1.0 8.0 0.00 0.00 0.00 38 1015.6
20210617173410 78 61 2.0 8.0 0.00 0.00 0.00 41 1015.7
20210617172402 78 304 4.0 10.0 0.00 0.00 0.00 37 1015.8
20210617171401 77 51 3.0 9.0 0.00 0.00 0.00 39 1015.8
20210617170402 77 56 3.0 8.0 0.00 0.00 0.00 38 1015.9
20210617165401 76 82 0.0 8.0 0.00 0.00 0.00 43 1016.1
20210617164406 76 53 3.0 8.0 0.00 0.00 0.00 40 1016.0
20210617163402 76 37 1.0 10.0 0.00 0.00 0.00 42 1016.1
20210617162402 76 344 1.0 6.0 0.00 0.00 0.00 42 1016.1
20210617161401 76 65 3.0 9.0 0.00 0.00 0.00 42 1016.2
20210617160405 75 53 2.0 7.0 0.00 0.00 0.00 42 1016.2
20210617155401 75 54 2.0 9.0 0.00 0.00 0.00 41 1016.4
20210617154402 75 8 2.0 6.0 0.00 0.00 0.00 42 1016.4
20210617153401 75 68 5.0 7.0 0.00 0.00 0.00 42 1016.4
20210617152404 74 55 3.0 5.0 0.00 0.00 0.00 41 1016.4
20210617151402 74 263 0.0 5.0 0.00 0.00 0.00 44 1016.5
20210617150402 73 307 1.0 9.0 0.00 0.00 0.00 45 1016.5
20210617145403 73 45 3.0 7.0 0.00 0.00 0.00 44 1016.5
20210617144401 72 42 3.0 6.0 0.00 0.00 0.00 43 1016.5
20210617143401 71 76 2.0 7.0 0.00 0.00 0.00 46 1016.5
20210617142401 71 58 3.0 9.0 0.00 0.00 0.00 47 1016.6
20210617141401 70 76 3.0 8.0 0.00 0.00 0.00 47 1016.5
20210617140403 70 32 1.0 6.0 0.00 0.00 0.00 47 1016.7
20210617135401 69 228 0.0 5.0 0.00 0.00 0.00 49 1016.6
20210617134402 69 77 1.0 8.0 0.00 0.00 0.00 51 1016.5
20210617133402 68 315 1.0 7.0 0.00 0.00 0.00 49 1016.6
20210617132401 68 307 2.0 3.0 0.00 0.00 0.00 51 1016.6
20210617131401 68 321 1.0 4.0 0.00 0.00 0.00 51 1016.5
20210617130404 67 330 1.0 6.0 0.00 0.00 0.00 52 1016.4
20210617125402 67 321 1.0 6.0 0.00 0.00 0.00 53 1016.3
20210617124401 66 51 1.0 4.0 0.00 0.00 0.00 56 1016.1
20210617123402 66 153 1.0 4.0 0.00 0.00 0.00 55 1016.0
20210617122402 66 44 0.0 3.0 0.00 0.00 0.00 55 1015.9
20210617121401 65 300 1.0 4.0 0.00 0.00 0.00 56 1015.9
20210617120402 65 282 1.0 4.0 0.00 0.00 0.00 58 1015.9
20210617115403 65 308 0.0 3.0 0.00 0.00 0.00 58 1015.8
20210617114402 64 315 0.0 3.0 0.00 0.00 0.00 59 1015.8
20210617113402 64 293 1.0 3.0 0.00 0.00 0.00 60 1015.8
20210617112403 63 292 1.0 3.0 0.00 0.00 0.00 63 1015.7
20210617111401 63 292 0.0 2.0 0.00 0.00 0.00 62 1015.5
20210617110402 62 288 1.0 4.0 0.00 0.00 0.00 63 1015.4
20210617105401 62 241 1.0 3.0 0.00 0.00 0.00 67 1015.3
20210617104402 62 45 1.0 4.0 0.00 0.00 0.00 64 1015.1
20210617103403 62 13 0.0 3.0 0.00 0.00 0.00 64 1015.0
20210617102404 62 88 0.0 4.0 0.00 0.00 0.00 63 1015.0
20210617101405 62 70 0.0 6.0 0.00 0.00 0.00 62 1015.0
20210617100402 62 61 1.0 4.0 0.00 0.00 0.00 62 1015.0
20210617095404 63 260 0.0 3.0 0.00 0.00 0.00 61 1014.8
20210617094402 63 246 1.0 6.0 0.00 0.00 0.00 62 1014.8
20210617093402 63 137 1.0 3.0 0.00 0.00 0.00 62 1014.6
20210617092402 63 276 0.0 4.0 0.00 0.00 0.00 61 1014.4
20210617091402 63 156 1.0 4.0 0.00 0.00 0.00 61 1014.4
20210617090405 64 58 1.0 5.0 0.00 0.00 0.00 61 1014.3
20210617085402 64 57 1.0 7.0 0.00 0.00 0.00 60 1014.3
20210617084402 64 351 2.0 6.0 0.00 0.00 0.00 60 1014.3
20210617083402 65 279 1.0 7.0 0.00 0.00 0.00 59 1014.1
20210617082402 65 336 2.0 9.0 0.00 0.00 0.00 58 1014.1
20210617081404 65 329 2.0 6.0 0.00 0.00 0.00 59 1014.1
20210617080402 65 324 1.0 5.0 0.00 0.00 0.00 60 1014.1
20210617075402 64 210 0.0 3.0 0.00 0.00 0.00 60 1014.1
20210617074403 65 293 0.0 4.0 0.00 0.00 0.00 62 1014.1
20210617073402 65 302 1.0 6.0 0.00 0.00 0.00 61 1014.1
20210617072403 64 306 2.0 6.0 0.00 0.00 0.00 60 1014.0
20210617071402 64 300 1.0 6.0 0.00 0.00 0.00 62 1014.2
20210617070402 64 263 1.0 4.0 0.00 0.00 0.00 64 1014.0
20210617065404 63 286 2.0 7.0 0.00 0.00 0.00 66 1014.1
20210617064402 61 283 1.0 4.0 0.00 0.00 0.00 72 1014.1
20210617063403 61 295 1.0 7.0 0.00 0.00 0.00 74 1014.1
20210617062404 60 287 1.0 4.0 0.00 0.00 0.00 76 1014.1
20210617061402 59 296 0.0 2.0 0.00 0.00 0.00 78 1014.1
20210617060404 59 296 0.0 2.0 0.00 0.00 0.00 77 1014.0
20210617055405 59 297 0.0 0.0 0.00 0.00 0.00 78 1014.0
20210617054359 59 297 0.0 1.0 0.00 0.00 0.00 76 1013.9
20210617053358 59 297 0.0 1.0 0.00 0.00 0.00 74 1013.9
20210617052359 59 297 0.0 0.0 0.00 0.00 0.00 78 1014.0
20210617051359 59 297 0.0 0.0 0.00 0.00 0.00 78 1014.0
20210617050358 59 297 0.0 0.0 0.00 0.00 0.00 78 1014.0
20210617045358 59 297 0.0 0.0 0.00 0.00 0.00 78 1014.0
20210617044359 58 297 0.0 0.0 0.00 0.00 0.00 77 1013.9
20210617043401 58 297 0.0 0.0 0.00 0.00 0.00 76 1013.9
20210617042400 58 297 0.0 0.0 0.00 0.00 0.00 76 1013.9
20210617041359 59 297 0.0 0.0 0.00 0.00 0.00 75 1013.8
20210617040358 59 297 0.0 0.0 0.00 0.00 0.00 74 1013.9
20210617035359 59 297 0.0 0.0 0.00 0.00 0.00 73 1013.8
20210617034359 60 297 0.0 0.0 0.00 0.00 0.00 72 1013.9
20210617033359 60 297 0.0 1.0 0.00 0.00 0.00 71 1013.8
20210617032358 60 297 0.0 0.0 0.00 0.00 0.00 69 1013.9
20210617031359 60 297 0.0 0.0 0.00 0.00 0.00 67 1013.8
20210617030359 60 296 0.0 1.0 0.00 0.00 0.00 66 1013.7
20210617025359 60 297 0.0 1.0 0.00 0.00 0.00 67 1013.6
20210617024359 61 296 0.0 1.0 0.00 0.00 0.00 67 1013.5
20210617023400 61 297 0.0 0.0 0.00 0.00 0.00 68 1013.6
20210617022358 61 297 0.0 0.0 0.00 0.00 0.00 68 1013.5
20210617021401 62 297 0.0 0.0 0.00 0.00 0.00 67 1013.4
20210617020359 62 297 0.0 0.0 0.00 0.00 0.00 65 1013.2
20210617015359 63 297 0.0 1.0 0.00 0.00 0.00 63 1013.2
20210617014359 64 297 0.0 1.0 0.00 0.00 0.00 63 1013.1
20210617013400 64 297 0.0 0.0 0.00 0.00 0.00 61 1013.0
20210617012403 65 297 0.0 1.0 0.00 0.00 0.00 59 1012.8
20210617011359 66 297 0.0 0.0 0.00 0.00 0.00 57 1012.8
20210617010359 67 297 0.0 0.0 0.00 0.00 0.00 53 1012.8
20210617005359 68 297 0.0 0.0 0.00 0.00 0.00 50 1012.8
20210617004400 69 297 0.0 0.0 0.00 0.00 0.00 48 1012.6